Home   Weather   Vladivostok   Past weeks

Flag for Russia Past Weather in Vladivostok, Russia — Yesterday and Last 2 Weeks

Now
19 °F

Clear.


Feels Like: 8 °F
Forecast: 11 / 21 °F
Wind: 10 mph from North

Location: Vladivostok Airport

Current Time: Dec 9, 2016 at 1:55:08 pm

Latest Report: Dec 9, 2016 at 1:30 pm


Visibility: N/A

Pressure: 30.07 "Hg

Humidity: 58%

Dew Point: 7 °F

Location of VladivostokLocation

Past Weather in Vladivostok — Graph

°F

Vladivostok Temperature Yesterday

Maximum temperature yesterday: 23 °F (at 2:00 pm)
Minimum temperature yesterday: 0 °F (at 4:30 am)
Average temperature yesterday: 11 °F

High & Low Weather Summary for the Past Weeks

 TemperatureHumidityPressure
High43 °F (Dec 3, 5:00 pm)100% (Nov 26, 6:00 pm)30.63 "Hg (Nov 26, 6:00 pm)
Low-4 °F (Nov 30, 1:30 am)28% (Dec 2, 2:30 pm)29.80 "Hg (Dec 1, 6:00 am)
Average19 °F67%30.16 "Hg
* Reported Nov 24 12:00 pm — Dec 9 12:30 pm, Vladivostok, Weather by CustomWeather, © 2016

Note: Actual official high and low records may vary slightly from our data, if they occured in-between our weather recording intervals... More about our weather records

Advertising

Vladivostok Weather History for the Previous 24 Hours

Scroll right to see more
 ConditionsComfort  
Time TempWeatherWind HumidityBarometerVisibility
12:30 pm
Fri, Dec 9
16 °FClear.10 mph62%30.07 "HgN/A
12:00 pm14 °FClear.10 mph67%30.07 "HgN/A
11:30 am14 °FClear.10 mph67%30.07 "HgN/A
11:00 am12 °FClear.10 mph73%30.07 "HgN/A
10:30 am12 °FClear.8 mph67%30.07 "HgN/A
10:00 am10 °FClear.10 mph72%30.07 "HgN/A
9:30 am10 °FClear.10 mph72%30.04 "HgN/A
9:00 am10 °FClear.10 mph72%30.04 "HgN/A
8:30 am10 °FClear.8 mph72%30.04 "HgN/A
8:00 am10 °FClear.10 mph72%30.01 "HgN/A
7:30 am10 °FClear.13 mph72%30.01 "HgN/A
7:00 am10 °FClear.13 mph72%30.01 "HgN/A
6:30 am10 °FClear.13 mph72%29.98 "HgN/A
6:00 am10 °FClear.10 mph72%29.98 "HgN/A
5:30 am10 °FClear.13 mph72%29.98 "HgN/A
5:00 am12 °FClear.10 mph73%29.98 "HgN/A
4:30 am12 °FClear.10 mph73%29.98 "HgN/A
4:00 am12 °FClear.10 mph73%29.98 "HgN/A
3:30 am12 °FClear.8 mph73%29.98 "HgN/A
3:00 am14 °FClear.8 mph67%29.95 "HgN/A
2:30 am14 °FClear.13 mph67%29.95 "HgN/A
2:00 am14 °FClear.13 mph67%29.98 "HgN/A
1:30 am16 °FClear.8 mph62%29.98 "HgN/A
1:00 am16 °FClear.3 mph62%29.98 "HgN/A
12:30 am16 °FClear.3 mph62%29.98 "HgN/A
12:00 am16 °FClear.6 mph67%29.98 "HgN/A
11:30 pm
Thu, Dec 8
16 °FClear.6 mph67%29.98 "HgN/A
11:00 pm18 °FClear.6 mph62%30.01 "HgN/A
10:30 pm18 °FClear.6 mph62%30.01 "HgN/A
10:00 pm16 °FClear.3 mph67%30.01 "HgN/A
9:30 pm14 °FClear.6 mph67%30.01 "HgN/A
9:00 pm14 °FClear.No wind73%29.98 "HgN/A
8:30 pm18 °FClear.3 mph62%29.98 "HgN/A
8:00 pm18 °FClear.3 mph62%29.98 "HgN/A
7:30 pm19 °FClear.1 mph58%29.98 "HgN/A
7:00 pm19 °FClear.1 mph58%29.98 "HgN/A
6:30 pm21 °FClear.1 mph49%29.98 "HgN/A
6:00 pm21 °FClear.1 mph49%29.98 "HgN/A
5:30 pm23 °FClear.1 mph46%30.01 "HgN/A
5:00 pm23 °FClear.3 mph46%30.01 "HgN/A
4:30 pm23 °FClear.3 mph42%30.01 "HgN/A
4:00 pm23 °FClear.3 mph42%30.01 "HgN/A
3:30 pm23 °FClear.1 mph39%30.01 "HgN/A
3:00 pm23 °FClear.1 mph42%30.01 "HgN/A
2:30 pm23 °FClear.3 mph42%30.04 "HgN/A
2:00 pm23 °FClear.No wind39%30.04 "HgN/A
1:30 pm21 °FClear.1 mph38%30.04 "HgN/A
Weather by CustomWeather, © 2016

See weather overviewHow to use our weather pages